Home > Weather > Tabatinga > Past weeks

Flag for Brazil Weather for the Past 2 Weeks in Tabatinga, Amazonas, Brazil

Now
88 °F

Broken clouds.


Feels Like: 98 °F
Forecast: 75 / 85 °F
Wind: 5 mph from Southeast

Location: Leticia / Vasquez Cobo

Current Time: May 3, 2016 at 1:43:05 PM

Latest Report: May 3, 2016 at 1:00 PM


Visibility: N/A

Pressure: 29.90 "Hg

Humidity: 66%

Dew Point: 75 °F

Location of TabatingaLocation

Historic Weather in Tabatinga — Graph

°F

Tabatinga Temperature Yesterday

Maximum temperature yesterday: 88 °F (at 12:00 PM)
Minimum temperature yesterday: 73 °F (at 4:00 AM)
Average temperature yesterday: 81 °F

High & Low Weather Summary for the Past Weeks

 TemperatureHumidityPressure
High93 °F (Apr 25, 2:00 PM)100% (Apr 18, 9:00 PM)30.05 "Hg (Apr 18, 9:00 PM)
Low66 °F (Apr 28, 6:00 AM)66% (May 2, 11:00 AM)29.68 "Hg (Apr 27, 3:00 PM)
Average79 °F88%29.87 "Hg
* Reported Apr 18 12:00 Noon — May 3 12:00 Noon, Tabatinga, Weather by CustomWeather, © 2016

Note: Actual official high and low records may vary slightly from our data, if they occured in-between our weather recording intervals... More about our weather records

Advertising

Tabatinga Weather History for the Previous 24 Hours

Scroll right to see more
 ConditionsComfort  
Time TempWeatherWind HumidityBarometerVisibility
12:00 PM
Tue, May 3
88 °FBroken clouds.5 mph70%29.94 "HgN/A
11:00 AM84 °FBroken clouds.5 mph74%29.96 "HgN/A
10:00 AM84 °FBroken clouds.5 mph79%29.96 "HgN/A
9:00 AM84 °FPartly sunny.No wind79%29.97 "HgN/A
8:00 AM82 °FScattered clouds.No wind79%29.96 "HgN/A
7:00 AM79 °FPartly sunny.No wind89%29.94 "HgN/A
6:00 AM77 °FBroken clouds.No wind94%29.93 "HgN/A
5:00 AM77 °FPartly cloudy.No wind94%29.91 "HgN/A
2:00 AM77 °FPassing clouds.No wind94%29.89 "HgN/A
1:00 AM77 °FPassing clouds.No wind94%29.90 "HgN/A
11:00 PM
Mon, May 2
79 °FClear.No wind89%29.93 "Hg10 mi
10:00 PM79 °FClear.No wind89%29.92 "Hg10 mi
9:00 PM79 °FClear.No wind89%29.91 "Hg10 mi
8:00 PM79 °FClear.No wind94%29.90 "Hg10 mi
7:00 PM81 °FPassing clouds.No wind84%29.88 "HgN/A
6:00 PM84 °FPartly cloudy.No wind74%29.86 "HgN/A
5:00 PM86 °FBroken clouds.No wind75%29.83 "HgN/A
4:00 PM86 °FBroken clouds.3 mph75%29.83 "HgN/A
3:00 PM88 °FPartly sunny.No wind70%29.84 "HgN/A
2:00 PM88 °FScattered clouds.3 mph66%29.87 "HgN/A
1:00 PM88 °FBroken clouds.3 mph66%29.89 "HgN/A
Weather by CustomWeather, © 2016

See weather overviewHow to use our weather pages